sat.trackr.live / text

‹ back to catalog

IRIDE-MS2-HEO-13

NORAD 68985 · 2026-100F

PAYLOAD ACTIVE UNKNOWN

§ Identity

Operator
Country
IT
Launch date
2026-05-03
Launch site
AFWTR
Launch vehicle
Mass (kg)
RCS (m²)

External: N2YO · Heavens-Above · Gunter

§ Orbital elements

Epoch: 2026-05-25T03:12:52.909344Z

Period
96.54 min
Inclination
97.7394°
Eccentricity
0.0001963
Mean motion
14.91669633 rev/d
Perigee alt
591.4 km
Apogee alt
594.1 km
Semi-major
6,970.9 km
B*
1.5140e-4
RAAN
43.0186°
Arg perigee
155.1755°
Mean anomaly
204.9559°
Rev number
326

§ Raw data

IRIDE-MS2-HEO-131 68985U 26100F   26145.13394571  .00001466  00000+0  15140-3 0  99962 68985  97.7394  43.0186 0001963 155.1755 204.9559 14.91669633  3260

JSON: /api/v1/satellites/68985 · /tle

For live sub-satellite position, see the globe view (requires WebGL).

§ Visibility from observer

Set your observer location to see the next 7 days of passes ≥ 10°. The values pass through the URL so the page stays shareable.

No JS? Fill the form by hand. The geolocation button needs JavaScript.